This is the latest recevied weather packets stored in our database for station/object WV6L-13. If no packets are shown the sender has not sent any weather packets the latest 10 day(s).
| Time | Temp. | Humidity | Pressure | Rain* | Wind** | Luminosity | Snow |
|---|---|---|---|---|---|---|---|
| 1777886094 | 15.56° C | 42% | 921.1 hPa | - | - | - | - |
| 1777885794 | 15.56° C | 41% | 921.3 hPa | - | - | - | - |
| 1777885493 | 16.11° C | 41% | 921.1 hPa | - | - | - | - |
| 1777885194 | 16.11° C | 40% | 921.2 hPa | - | - | - | - |
| 1777884894 | 15.56° C | 40% | 921 hPa | - | - | - | - |
| 1777884595 | 15.56° C | 37% | 921.1 hPa | - | - | - | - |
| 1777884294 | 16.11° C | 37% | 921.1 hPa | - | - | - | - |
| 1777883993 | 16.11° C | 35% | 921.2 hPa | - | - | - | - |
| 1777883694 | 16.11° C | 34% | 921.3 hPa | - | - | - | - |
| 1777883393 | 16.67° C | 33% | 921.2 hPa | - | - | - | - |
| 1777883094 | 17.22° C | 31% | 921.3 hPa | - | - | - | - |
| 1777882794 | 16.67° C | 31% | 921.2 hPa | - | - | - | - |
| 1777882494 | 16.67° C | 31% | 921.1 hPa | - | - | - | - |
| 1777882193 | 17.22° C | 30% | 921.1 hPa | - | - | - | - |
| 1777881894 | 17.22° C | 30% | 921 hPa | - | - | - | - |
| 1777881594 | 17.22° C | 30% | 921 hPa | - | - | - | - |
| 1777881293 | 16.67° C | 31% | 920.9 hPa | - | - | - | - |
| 1777880694 | 17.22° C | 31% | 921 hPa | - | - | - | - |
| 1777880394 | 16.67° C | 31% | 920.6 hPa | - | - | - | - |
| 1777880094 | 16.67° C | 31% | 920.7 hPa | - | - | - | - |
| 1777879793 | 16.67° C | 31% | 920.7 hPa | - | - | - | - |
| 1777879494 | 17.22° C | 30% | 920.6 hPa | - | - | - | - |
| 1777879194 | 17.78° C | 31% | 920.6 hPa | - | - | - | - |
| 1777878894 | 18.33° C | 30% | 920.4 hPa | - | - | - | - |
| 1777878594 | 18.33° C | 29% | 920.4 hPa | - | - | - | - |
* Rain since midnight (hover to see other rain measurements)
** Current wind speed in m/s (hover to see current wind gust speed)